Theta_e
310 308 305 305 306 308 309 308 307 305 306 306 304 304 305 304 302 301 300 299 299 299 301 303 304 305 304 303 302 301 300 300 299 298 298 299 301 300 301 301 301 302 303 304
308 308 306 307 307 308 307 308 306 306 305 306 305 306 307 305 306 303 303 304 302 301 299 300 302 303 303 302 301 301 300 299 298 298 298 300 300 300 301 301 302 303 303 303
307 308 307 308 307 307 307 306 306 307 307 306 305 307 308 305 305 305 305 302 301 300 300 299 300 302 302 301 301 300 299 298 297 297 299 300 300 301 301 302 303 303 304 304
308 307 307 307 308 305 307 306 307 308 306 308 306 310 307 306 305 305 304 301 301 301 300 299 299 300 301 301 300 300 298 297 297 298 300 300 299 300 301 301 302 304 304 305
307 307 307 307 306 306 306 307 307 308 308 309 308 307 308 304 305 303 302 301 299 299 299 299 298 301 301 300 300 299 297 296 297 299 299 299 299 300 300 301 303 303 304 306
306 305 307 306 305 306 306 307 309 310 308 308 310 308 309 304 304 304 303 301 300 299 299 298 300 301 300 299 299 298 297 296 298 299 299 299 299 299 300 301 301 302 303 305
305 306 305 306 305 305 307 306 304 309 308 314 306 304 308 306 303 303 301 300 300 299 299 298 298 297 298 298 298 297 296 296 299 299 299 299 299 299 299 299 299 299 301 303
306 305 305 304 305 305 305 306 308 309 314 316 303 309 311 305 302 302 299 300 299 299 298 298 297 298 298 298 298 297 295 297 299 299 299 298 299 299 299 299 299 301 302 303
307 307 303 304 304 303 305 306 307 305 298 309 310 309 308 304 303 301 299 298 299 299 298 298 297 298 299 298 298 296 295 298 299 298 298 298 298 299 299 299 300 301 302 304
309 306 302 303 303 303 303 302 305 304 308 311 312 315 313 305 303 301 300 298 298 299 298 297 296 298 298 298 297 295 296 298 298 298 298 298 298 298 299 299 300 301 303 304
309 308 303 302 303 304 304 302 302 306 309 312 313 317 313 310 304 302 300 299 298 298 298 297 296 298 298 297 296 295 297 298 298 298 297 297 297 298 299 300 301 302 304 304
307 306 304 304 301 301 302 304 303 308 306 306 311 315 311 310 307 303 300 299 298 298 297 296 295 296 296 295 294 295 298 298 298 297 297 296 297 298 300 302 303 304 305 305
308 306 304 306 305 302 303 302 304 307 305 305 313 315 310 306 305 304 301 299 299 298 297 296 294 293 294 294 294 295 298 298 297 297 296 296 297 300 302 303 304 306 307 308
307 304 305 308 308 304 303 303 303 305 304 308 309 312 317 310 305 304 303 301 299 298 298 296 295 293 294 294 293 295 297 298 297 297 296 296 299 301 302 304 305 306 308 311
306 304 301 304 306 304 304 304 302 303 306 308 307 309 312 314 307 303 303 301 298 296 296 295 295 293 293 293 293 295 297 297 297 296 296 297 300 301 303 305 307 308 310 311
303 304 301 300 301 304 306 305 302 302 300 301 305 306 307 309 309 304 303 303 301 299 297 297 294 293 293 292 293 295 297 297 297 296 297 299 300 302 304 306 306 308 312 312
305 304 304 308 300 306 308 302 304 303 302 305 306 307 308 310 310 309 307 305 304 303 302 299 298 294 293 293 294 295 297 297 296 296 298 300 301 301 303 304 305 307 308 310
304 305 308 303 306 313 310 304 304 305 304 304 305 306 307 308 308 309 307 308 307 304 303 302 299 295 294 294 294 296 297 297 296 297 299 301 301 302 303 306 306 306 307 308
306 307 309 309 307 309 309 307 306 307 309 305 305 306 307 309 308 307 306 305 307 305 303 302 300 296 294 293 294 297 296 296 296 297 299 301 301 302 303 304 305 305 306 306
307 308 311 312 310 309 308 308 304 306 312 307 305 306 306 306 308 308 306 305 305 303 304 301 300 296 293 292 294 296 295 296 296 299 300 301 302 302 303 303 304 303 305 303
308 309 310 311 313 308 306 307 305 310 312 308 306 306 305 306 307 306 304 303 302 301 299 299 297 294 293 293 295 294 294 295 297 300 300 300 301 302 303 302 302 301 302 301
307 309 310 312 313 311 305 305 309 309 307 307 308 306 306 304 304 304 302 300 297 296 296 295 295 293 291 293 294 294 293 296 298 299 299 299 300 301 301 302 301 300 300 300
308 306 306 308 308 305 305 306 306 305 307 307 307 307 307 305 304 303 300 298 296 295 294 294 293 291 291 293 294 294 295 296 297 298 298 298 299 300 300 301 300 300 301 300
302 302 302 303 305 305 304 304 304 305 305 306 305 305 306 308 306 301 298 296 295 293 292 292 291 290 290 292 294 296 296 297 297 297 297 297 298 297 298 300 300 300 299 299
299 300 299 304 303 304 303 304 305 306 305 304 303 305 306 305 305 301 298 295 294 293 292 291 291 290 290 291 293 296 297 296 295 295 296 296 297 297 297 298 298 298 298 298
297 301 305 306 304 305 306 304 303 304 304 304 304 303 302 302 302 300 297 295 293 291 291 291 291 290 290 291 293 295 296 296 295 294 294 295 296 295 296 296 295 297 299 298
Wind_Speed
2 2 7 10 7 1 1 1 5 5 1 2 7 10 20 9 7 8 9 8 9 8 3 14 19 17 14 11 9 6 4 3 3 4 4 3 5 6 4 4 3 2 2 3
3 8 7 3 5 5 4 3 5 4 2 1 6 16 15 5 2 4 5 5 5 7 7 9 16 16 13 13 9 7 5 3 2 2 2 1 4 2 3 3 3 2 3 4
7 2 4 4 3 4 3 5 4 4 5 3 7 8 4 1 1 1 1 3 4 10 10 7 11 14 13 13 11 9 7 4 2 1 1 1 1 2 1 5 4 6 3 2
6 2 5 4 4 6 3 2 2 1 3 3 4 5 6 3 5 3 3 3 5 7 5 6 9 12 14 13 12 10 6 4 3 1 2 2 3 2 1 5 5 3 4 3
6 5 4 3 3 3 4 2 3 1 2 2 1 1 7 3 5 7 8 7 7 8 8 9 9 15 15 15 13 9 7 5 4 2 1 2 2 1 1 3 4 5 5 4
1 1 1 2 3 3 5 4 6 4 2 2 2 4 6 4 5 1 3 8 8 8 7 6 10 16 16 13 12 9 8 6 4 3 2 1 1 3 3 3 3 5 6 4
3 2 0 2 4 4 3 5 2 4 3 5 1 2 10 5 7 5 9 10 9 8 7 8 9 12 14 15 12 10 8 7 5 4 1 1 2 1 2 6 7 7 5 5
6 5 7 3 2 5 6 5 5 7 3 3 1 6 6 5 5 4 8 8 7 8 7 8 8 14 17 15 13 10 9 8 6 4 2 1 1 0 1 2 4 3 2 3
5 3 3 4 2 2 5 5 2 6 1 3 4 7 8 4 4 2 7 7 9 8 8 9 9 16 17 16 14 11 10 9 7 3 3 2 1 2 2 2 3 2 2 3
2 1 2 3 1 1 3 2 2 3 3 4 4 5 6 5 9 7 7 10 9 8 8 7 7 15 17 16 13 11 10 9 6 3 4 4 3 3 3 3 4 3 3 5
4 3 2 1 5 7 2 2 2 1 4 5 2 6 7 9 10 12 11 10 10 9 9 8 7 15 17 16 15 12 12 9 8 5 4 6 3 2 2 4 5 5 4 4
3 3 3 6 2 1 1 4 6 4 5 1 2 6 2 6 6 7 9 10 7 8 8 8 8 17 19 18 16 14 13 9 8 6 4 4 2 2 2 4 6 5 4 2
5 3 1 5 3 2 5 6 5 2 3 6 5 6 3 5 5 3 7 8 8 8 7 7 7 10 18 19 17 15 13 10 9 8 5 3 2 1 2 4 3 3 3 4
5 2 5 6 3 4 3 4 7 4 3 4 6 5 5 7 7 6 5 7 8 8 9 8 7 7 18 21 19 17 15 12 10 9 6 5 3 1 1 2 4 7 10 10
1 4 4 4 5 5 5 7 7 11 16 7 4 8 11 8 8 6 6 5 6 7 7 8 9 8 17 21 19 18 16 14 11 11 9 7 4 3 5 6 7 9 16 15
1 2 2 4 1 4 6 10 5 9 4 6 15 11 11 11 4 5 9 8 10 10 10 9 9 9 15 24 25 21 19 17 12 12 11 8 5 7 9 9 11 14 15 14
5 4 2 6 1 3 11 9 10 7 6 10 14 17 24 7 8 10 10 9 12 13 12 12 13 13 20 28 30 27 23 20 16 14 13 9 8 11 13 15 17 18 19 17
5 5 3 3 2 5 7 1 4 13 7 15 5 9 17 19 17 9 9 10 13 12 10 10 10 16 24 31 30 27 24 22 20 16 14 11 11 14 18 21 22 22 23 24
5 5 3 3 5 8 14 5 7 8 8 18 19 19 20 3 2 6 9 12 13 11 11 11 21 24 27 34 34 31 27 24 23 21 18 16 15 18 19 23 25 26 27 26
12 7 6 4 4 8 4 6 4 4 14 8 15 17 13 6 6 13 10 8 12 9 9 14 22 26 30 33 38 34 29 27 27 25 20 19 18 19 22 23 26 27 29 30
7 6 13 8 4 8 8 3 3 6 5 7 4 2 7 6 12 5 4 6 3 6 13 20 25 25 29 37 39 29 28 25 30 26 22 20 21 22 23 25 27 29 30 30
11 9 4 6 6 13 6 3 6 1 5 3 3 3 6 8 8 5 7 6 6 7 12 20 20 21 30 37 36 29 27 31 33 27 24 22 21 23 27 28 26 26 27 28
6 7 6 10 7 3 2 4 3 3 2 4 5 5 4 7 8 8 6 7 6 7 11 19 19 22 27 35 34 31 32 35 36 30 27 26 24 25 26 28 26 26 23 24
4 6 3 3 8 10 8 6 6 5 5 4 6 9 3 5 7 6 6 5 5 7 11 20 21 20 23 31 34 34 38 40 38 34 31 28 26 24 23 23 23 23 22 21
6 7 6 9 5 6 9 6 8 3 5 7 7 7 5 7 11 5 5 6 6 7 12 19 19 21 23 29 33 35 40 42 36 33 33 30 29 27 23 19 18 18 17 19
4 6 6 5 3 3 5 7 8 7 7 7 4 5 4 6 9 5 5 5 8 10 17 16 17 20 26 30 34 37 41 43 37 30 33 32 31 28 26 26 22 16 16 16
Wind_Direction
215 132 210 212 199 111 89 221 262 279 183 255 249 270 279 295 253 254 250 242 229 221 162 153 152 155 153 157 165 165 174 211 279 316 339 337 3 22 22 355 357 355 324 310
70 237 213 228 193 202 229 245 263 270 207 272 307 286 281 278 294 213 179 199 207 134 129 139 154 158 166 170 172 167 187 204 258 343 351 335 329 31 14 6 356 13 333 311
171 226 132 172 173 170 215 199 234 248 314 239 320 291 327 296 287 81 102 80 143 163 155 165 176 177 175 175 173 176 182 192 192 326 93 272 211 156 132 8 19 352 360 299
236 250 163 171 215 155 252 175 152 51 38 259 16 283 302 299 267 242 233 115 168 176 165 171 185 181 180 176 175 175 179 179 174 139 170 178 93 81 348 334 -0 22 7 343
235 165 167 171 194 182 214 108 110 104 93 19 323 72 270 331 277 244 221 214 199 207 190 188 188 182 176 168 170 173 170 171 171 158 128 104 162 198 328 44 60 7 27 27
64 329 214 177 75 33 136 80 43 46 74 13 229 140 283 207 218 259 196 210 209 205 193 155 163 164 163 171 173 175 171 173 168 143 111 192 85 356 340 24 15 15 24 30
1 213 289 149 96 24 83 82 330 349 11 216 93 95 247 263 248 208 197 202 210 203 171 162 162 167 169 176 180 177 174 173 169 131 134 77 66 355 353 340 342 357 3 354
158 290 172 177 211 174 177 168 169 203 195 227 94 229 248 228 293 233 185 177 189 187 179 183 183 183 182 181 185 181 179 167 163 155 153 125 233 201 238 319 327 327 330 317
144 270 348 48 355 79 197 193 195 103 37 50 218 280 297 240 257 142 161 173 204 201 193 196 191 189 183 181 191 187 179 164 154 168 127 161 157 246 265 277 274 274 280 262
201 63 345 317 275 83 189 314 87 344 141 237 278 278 240 240 229 205 199 209 214 207 197 189 185 179 184 182 186 184 182 163 148 144 153 211 193 228 257 284 300 308 297 277
137 142 303 54 203 184 148 271 238 237 166 176 194 255 213 213 206 202 204 212 205 198 203 183 177 173 175 177 180 182 175 162 144 148 181 229 218 223 269 284 321 322 297 280
183 116 177 195 216 223 274 229 187 147 245 253 168 272 238 240 225 205 204 209 207 203 200 174 162 165 172 176 178 184 173 166 149 158 193 226 223 243 282 335 330 325 298 244
182 222 32 346 18 348 216 203 210 134 84 201 166 259 346 303 282 224 199 202 204 202 178 157 152 171 173 180 179 183 178 167 164 160 190 202 192 184 340 352 30 8 31 94
116 125 175 191 152 134 219 253 221 166 138 204 218 286 284 266 252 241 197 192 201 196 184 172 172 180 178 182 182 182 178 167 173 163 174 196 166 138 26 58 77 103 106 117
74 211 168 253 242 200 224 235 186 206 227 208 261 209 255 260 242 238 237 179 192 208 202 192 188 181 178 178 184 184 179 167 172 166 171 177 179 127 111 105 107 102 118 115
89 254 134 272 252 220 261 240 214 219 222 262 260 270 242 269 256 252 226 198 214 215 215 205 197 174 179 177 182 183 180 165 173 176 166 169 167 136 122 121 120 119 120 117
178 162 92 261 9 339 283 205 207 191 198 196 223 232 245 248 247 242 230 210 223 222 209 206 202 189 180 180 180 183 180 166 170 175 165 172 161 142 130 124 125 120 117 123
172 149 154 254 41 217 246 181 184 209 221 222 239 230 235 233 240 246 215 211 219 223 214 203 188 183 178 183 177 179 177 169 167 172 172 170 158 143 134 127 121 118 116 111
189 163 196 203 206 312 296 195 178 180 260 213 224 243 249 228 226 266 234 222 220 217 210 201 184 178 173 176 174 175 175 170 169 171 175 166 158 147 138 131 127 124 121 116
202 204 206 173 209 221 256 327 122 91 279 236 204 232 248 183 246 261 199 208 226 213 185 170 169 170 167 171 171 170 173 172 174 174 175 166 158 153 143 134 128 125 122 117
188 193 221 228 253 280 249 228 177 130 243 14 156 219 195 193 219 276 190 202 198 179 165 169 160 166 168 168 168 164 171 174 175 172 171 167 161 152 142 135 132 128 123 121
185 190 190 205 222 254 184 67 200 227 346 54 52 219 260 255 280 255 246 221 186 155 145 154 150 158 164 168 165 162 175 178 171 171 167 166 162 153 147 141 138 133 131 126
201 197 187 196 211 240 190 253 281 357 314 332 319 323 271 274 278 263 237 219 193 173 155 156 152 150 162 170 172 166 177 172 173 169 166 163 161 157 153 147 145 141 139 133
243 200 219 91 247 247 264 258 249 258 252 246 255 276 274 273 281 272 241 213 190 181 166 160 150 159 162 172 177 176 173 171 174 168 166 163 161 157 157 153 153 148 145 143
199 157 189 256 326 316 279 247 266 170 239 260 241 238 260 301 303 242 221 212 198 183 180 169 166 166 169 172 177 180 175 173 169 166 166 166 164 161 155 154 159 162 162 167
190 190 197 233 212 260 293 329 336 325 326 342 313 294 267 261 275 267 233 210 188 178 180 180 177 168 168 173 178 180 179 177 170 169 168 171 167 165 162 156 145 156 157 155